Location: Newark
(41.6500°N, 71.4833°W)
Time: 00:59:10
(UTC+00:00)

deb Explorer IX - Pass Details

Date: 25 January 2020
Orbit: 549 x 1099 km, 38.8° (Epoch: 20 February)

Event Time Altitude Azimuth Distance (km) Brightness Sun altitude
Rises 07:55:36 0° 279° (W) 3,894 - -46.2°
Reaches altitude 10° 07:58:46 10° 269° (W) 2,903 - -45.6°
Maximum altitude 08:04:45 30° 212° (SSW) 1,728 - -44.6°
Drops below altitude 10° 08:10:16 10° 153° (SSE) 2,645 - -43.6°
Exits shadow 08:12:32 - 144° (SE) 3,339 ? -43.2°
Sets 08:13:01 0° 143° (SE) 3,498 ? -43.1°
